176  
ASUS45 KTFX 141310  
RWRMT  
MONTANA REGIONAL WEATHER ROUNDUP  
NATIONAL WEATHER SERVICE GREAT FALLS MT  
700 AM MDT FRI MAY 14 2021  
 
NOTE: "FAIR" INDICATES FEW OR NO CLOUDS BELOW 12,000 FEET WITH NO  
SIGNIFICANT WEATHER AND/OR S TO VISIBILITY
.  
 
MTZ001>007-043-141400-  
WEST OF THE DIVIDE  
 
CITY SKY/WX TMP DP RH WIND PRES REMARKS
 
KALISPELL CLEAR 45 38 76 NW3 30.10R  
MISSOULA MOCLDY 41 33 73 CALM 30.11R  
BUTTE PTCLDY 34 28 79 SE3 30.16R  
ANACONDA N/A 39 30 70 SW3 30.16R  
DEER LODGE N/A 43 34 70 CALM 30.18R  
HAMILTON MOCLDY 37 34 87 SE5 30.11S  
MULLAN PASS PTCLDY 47 30 51 CALM 30.13S  
PLAINS N/A 39 34 82 CALM 30.10S  
RONAN N/A 41 37 87 CALM 30.09S  

 
 
MTZ008-052>055-141400-  
SOUTHWEST MONTANA  
 
CITY SKY/WX TMP DP RH WIND PRES REMARKS
 
BOZEMAN PTCLDY 45 37 73 NE3 30.13R  
DILLON PTCLDY 43 33 68 E7 30.11S  
ENNIS PTCLDY 41 34 75 VRB5 30.16S  
TWIN BRIDGES FAIR 48 34 57 NE17 30.12R  
W YELLOWSTONE MOCLDY 30 30 100 CALM 30.14R  

 
 
MTZ009-010-012-014-046-048-049-054-141400-  
EAST SLOPES AND CENTRAL MONTANA  
 
CITY SKY/WX TMP DP RH WIND PRES REMARKS
 
CUT BANK CLEAR 37 34 89 W6 30.15S  
GREAT FALLS MOSUNNY 44 40 85 CALM 30.15R  
HELENA PTCLDY 47 36 65 W6 30.15R  
MALMSTROM AFB MOSUNNY 44 42 94 SW5 30.16S  
AUGUSTA FAIR 43 39 86 NW7 30.14S  
BOWMANS CORNER FAIR 44 38 82 CALM 30.13S  
CHOTEAU N/A 43 37 81 W5 30.14S  
FAIRFIELD FAIR 41 38 87 W5 30.14R  
RAYNESFORD FAIR 40 37 87 NE3 30.16S  
ULM FAIR 45 43 94 E6 30.14F  

 
 
MTZ011-013-016-021-045-047-050-051-141400-  
NORTH CENTRAL MONTANA  
 
CITY SKY/WX TMP DP RH WIND PRES REMARKS
 
HAVRE FOG 39 39 100 CALM 30.13R VSB<1/4  
LEWISTOWN MOSUNNY 42 37 82 SW6 30.14R  
CHINOOK N/A 43 43 100 W5 30.13  
DENTON FAIR 42 37 83 SE3 30.11R  
GRASS RANGE FAIR 45 38 77 SW7 30.09R  
N BAR RANCH FAIR 41 34 75 CALM 30.15R  
ROY FAIR 47 42 81 W13 30.10S  
STANFORD FAIR 45 37 71 NW13 30.14R  
WINIFRED N/A 44 40 86 W9 30.12R  

 
 
MTZ017>020-022>027-061-062-141400-  
NORTHEAST MONTANA  
 
CITY SKY/WX TMP DP RH WIND PRES REMARKS
 
GLASGOW CLOUDY 51 43 74 N13 30.10R  
CIRCLE N/A 43 39 87 SW5 30.08  
GLENDIVE CLOUDY 49 47 93 NE5 30.10S  
JORDAN N/A 45 40 82 W6 30.09R  
MALTA CLOUDY 50 48 93 CALM 30.08R  
PLENTYWOOD PTSUNNY 43 34 70 CALM 30.08R  
POPLAR N/A 41 37 87 CALM 30.08S  
SIDNEY PTSUNNY 47 41 80 CALM 30.08S  
WOLF POINT CLOUDY 45 38 76 SW3 30.09R  

 
 
MTZ028>42-056>058-141400-  
SOUTHCENTRAL AND SOUTHEAST MONTANA  
 
CITY SKY/WX TMP DP RH WIND PRES REMARKS
 
BAKER CLOUDY 44 38 79 S3 30.10S  
BIG TIMBER MOSUNNY 41 37 87 W7 30.14S  
BILLINGS PTSUNNY 47 40 76 SW6 30.11S  
HARDIN CLOUDY 43 41 93 CALM 30.11  
HARLOWTON FAIR 40 37 90 W10 30.13S  
LAUREL N/A 48 45 87 CALM 30.12S  
LIVINGSTON MOSUNNY 40 36 86 NW6 30.13S  
MILES CITY PTSUNNY 43 39 86 CALM 30.09S  
ROUNDUP N/A 41 36 82 S9 30.01  

 
 
REGIONAL REPORTS...DAKOTAS/MN  
 
CITY SKY/WX TMP DP RH WIND PRES REMARKS
 
WILLISTON PTSUNNY 50 34 54 W6 30.07S  
MINOT SUNNY 48 41 76 SE3 30.05S  
DICKINSON CLOUDY 53 37 54 CALM 30.06R  
BEACH PTSUNNY 52 45 76 CALM 30.10S  
CROSBY CLOUDY 55 36 47 NW7 30.06R  
HETTINGER SUNNY 44 40 85 SW3 30.09S  
TIOGA FAIR 48 30 49 CALM 30.08R  
WATFORD CITY FAIR 46 41 81 SW5 30.08R  
BISMARCK SUNNY 49 43 80 W3 30.07S  
GRAND FORKS MOSUNNY 50 39 66 S5 30.06S  
FARGO PTSUNNY 54 46 74 SE7 30.06S  
BUFFALO SD N/A 46 36 68 W5 30.07S  
RAPID CITY MOSUNNY 47 38 71 W10 30.11R  
INTL FALLS MOSUNNY 55 39 54 SE3 30.13S  
DULUTH MOSUNNY 56 31 38 SW13 30.19S  
MINNEAPOLIS CLOUDY 59 28 30 SW9 30.21S  

 
 
REGIONAL REPORTS...WY/CO/ID/WA/OR  
 
CITY SKY/WX TMP DP RH WIND PRES REMARKS
 
BUFFALO WY LGT RAIN 52 36 54 NW5 30.14R  
CODY PTSUNNY 48 38 68 S6 30.14S  
GILLETTE CLOUDY 45 41 86 CALM 30.12R  
POWELL FAIR 46 32 57 CALM 30.12S  
SHERIDAN CLOUDY 46 41 82 CALM 30.11F  
YELLOWSTONE LA N/A 32 30 92 CALM 30.20S  
BOISE MOCLDY 54 37 52 S3 29.98S  
COUER D'ALENE CLEAR 44 39 82 NE6 30.09R  
IDAHO FALLS PTCLDY 43 37 79 CALM 30.04S  
SALMON MOCLDY 43 32 65 CALM 30.10R  
SPOKANE PTCLDY 50 39 66 NE3 30.07S  
SEATTLE PTCLDY 52 47 83 N3 30.14S  
PORTLAND MOCLDY 55 47 74 NW3 30.10R  

 
 
REGIONAL REPORTS...ALBERTA  
 
CITY SKY/WX TMP DP RH WIND PRES REMARKS
 
CALGARY PTCLDY 41 36 81 SE2 30.13S  
CARDSTON N/A 36 32 87 SW1 N/A  
CROWSNEST PASS N/A 28 28 100 CALM N/A  
DEL BONITA N/A 39 37 93 W8 N/A  
EDMONTON SUNNY 48 41 76 CALM 30.09S  
FORT MCMURRAY PTSUNNY 43 37 81 N10 30.15R  
HIGH LEVEL PTSUNNY 41 37 87 N7 30.19F  
LETHBRIDGE PTCLDY 39 36 87 SW7 30.14S  
LLOYDMINSTER MOSUNNY 48 43 81 W8 30.08S  
MEDICINE HAT MOSUNNY 43 39 87 S5 30.12R  
MILK RIVER N/A 39 36 87 NW10 N/A  
ONEFOUR N/A 43 39 87 N9 N/A  
PEACE RIVER MOCLDY 48 36 61 N13 30.12S  
PINCHER CREEK CLEAR 36 34 93 W6 30.16S WCI 31  
RAYMOND N/A 39 36 87 W5 N/A  
FORT SMITH NWT CLOUDY 34 28 80 E5 30.26F  

 
 
REGIONAL REPORTS...SASKATCHEWAN  
 
CITY SKY/WX TMP DP RH WIND PRES REMARKS
 
ASSINIBOIA N/A 48 34 57 NW3 N/A  
CYPRESS HILLS N/A 45 37 76 SW2 N/A  
ESTEVAN SUNNY 50 34 53 NE2 30.05S  
PRINCE ALBERT PTSUNNY 50 41 71 E5 30.07F  
REGINA MOSUNNY 50 32 50 CALM 30.07S  
ROCKGLEN N/A 52 36 54 N7 N/A  
SASKATOON MOSUNNY 50 36 57 N5 30.06R  
SWIFT CURRENT SUNNY 48 41 76 W9 30.09R  
URANIUM CITY N/A 28 21 74 MISG N/A  

 
 
 
CLICK HERE TO GO TO PREVIOUS BULLETINS.

The Nexlab MT Page Main Text Page